Date,TemperatureHighF,TemperatureAvgF,TemperatureLowF,DewpointHighF,DewpointAvgF,DewpointLowF,HumidityHigh,HumidityAvg,HumidityLow,PressureMaxIn,PressureMinIn,WindSpeedMaxMPH,WindSpeedAvgMPH,GustSpeedMaxMPH,PrecipitationSumIn
2013-11-1,80,66,52,36,30,27,40,28,16,30.16,29.99,12,3,16,0.00
2013-11-2,83,67,54,35,29,25,39,26,12,30.00,29.78,6,3,9,0.00
2013-11-3,82,70,57,35,28,24,44,22,12,29.81,29.68,9,3,13,0.00
2013-11-4,75,65,56,36,29,25,43,27,19,29.83,29.67,19,5,25,0.00
2013-11-5,68,61,55,31,20,14,32,21,13,30.18,29.84,26,11,31,0.00
2013-11-6,74,59,46,25,17,12,36,21,10,30.32,30.18,10,3,17,0.00
2013-11-7,79,63,50,25,18,15,26,19,9,30.22,30.02,8,3,10,0.00
2013-11-8,82,65,51,29,21,16,32,20,9,30.06,29.91,5,2,6,0.00
2013-11-9,82,66,52,31,26,18,33,24,15,30.07,29.96,5,2,7,0.00
2013-11-10,80,66,56,37,31,27,38,27,15,30.12,30.01,10,2,14,0.00
2013-11-11,85,68,54,33,29,26,38,25,12,30.10,29.99,10,3,14,0.00
2013-11-12,85,71,57,32,27,21,31,20,10,30.19,30.05,10,3,12,0.00
2013-11-13,85,72,60,36,29,22,25,20,14,30.09,29.91,7,2,7,0.00
2013-11-14,82,69,56,30,27,25,33,21,12,29.98,29.71,6,2,9,0.00
2013-11-15,82,73,65,43,35,27,38,25,19,29.71,29.48,14,6,23,0.00
2013-11-16,72,65,60,47,41,38,63,42,31,29.84,29.59,16,7,21,0.00
2013-11-17,72,63,54,46,41,37,57,45,35,30.05,29.84,9,3,14,0.00
2013-11-18,75,62,52,47,43,40,66,50,35,30.11,29.96,5,2,9,0.00
2013-11-19,74,64,54,47,44,43,68,50,36,29.98,29.82,10,2,14,0.00
2013-11-20,75,65,57,48,43,39,63,46,29,29.86,29.75,7,2,13,0.00
2013-11-21,68,64,57,54,47,42,88,56,44,29.90,29.79,13,5,24,0.17
2013-11-22,57,52,49,54,48,46,94,86,73,29.99,29.84,14,5,20,0.41
2013-11-23,56,52,48,49,48,46,95,86,74,30.10,29.97,10,4,15,0.28
2013-11-24,63,55,50,49,46,42,93,73,49,30.18,30.10,7,2,10,0.12
2013-11-25,67,55,45,47,42,35,89,64,32,30.24,30.14,12,3,15,0.00
2013-11-26,68,56,46,46,42,38,79,60,35,30.30,30.14,6,2,9,0.00
2013-11-27,69,57,49,45,42,35,84,60,30,30.17,29.96,6,2,7,0.00
2013-11-28,70,56,45,43,40,35,86,57,28,30.09,29.98,5,2,8,0.00
2013-11-29,70,57,46,45,41,37,80,58,31,30.19,30.09,7,2,7,0.00
2013-11-30,69,58,47,43,40,37,76,53,31,30.21,30.08,9,3,14,0.00